QPF
0.03 0.03 0.03 0.03 0.03 0.03 0.03 0.02 0.01 0.01 0.01 0.01 0.01 0.01 0.02 0.01 0.01 0.01 0.01 0.01 0.00 0.00 0.00 0.00 0.00 0.00 0.00 0.00 0.00 0.00 0.00 0.00 0.00 0.00 0.00 0.00 0.00 0.00 0.00 0.00 0.00 0.00 0.00
0.02 0.02 0.02 0.02 0.03 0.03 0.02 0.02 0.02 0.01 0.01 0.02 0.02 0.01 0.01 0.01 0.02 0.01 0.02 0.01 0.00 0.00 0.00 0.00 0.00 0.00 0.00 0.00 0.00 0.00 0.00 0.00 0.00 0.00 0.00 0.00 0.00 0.00 0.00 0.00 0.00 0.00 0.00
0.02 0.02 0.02 0.02 0.02 0.03 0.03 0.02 0.02 0.01 0.02 0.02 0.02 0.01 0.01 0.01 0.02 0.02 0.01 0.01 0.00 0.00 0.00 0.00 0.00 0.00 0.00 0.00 0.00 0.00 0.00 0.00 0.00 0.00 0.00 0.00 0.00 0.00 0.00 0.00 0.00 0.00 0.00
0.01 0.01 0.01 0.01 0.02 0.04 0.03 0.02 0.02 0.02 0.02 0.01 0.01 0.01 0.01 0.01 0.02 0.03 0.03 0.02 0.01 0.01 0.01 0.00 0.00 0.00 0.00 0.00 0.00 0.00 0.00 0.00 0.00 0.00 0.00 0.00 0.00 0.00 0.00 0.00 0.00 0.00 0.00
0.01 0.01 0.01 0.01 0.02 0.04 0.03 0.03 0.04 0.03 0.02 0.03 0.02 0.02 0.01 0.01 0.01 0.02 0.03 0.03 0.02 0.02 0.01 0.01 0.01 0.00 0.00 0.00 0.00 0.00 0.00 0.00 0.00 0.00 0.00 0.00 0.00 0.00 0.00 0.00 0.00 0.00 0.00
0.01 0.01 0.02 0.03 0.03 0.03 0.03 0.03 0.05 0.04 0.04 0.04 0.03 0.03 0.02 0.02 0.02 0.03 0.02 0.02 0.01 0.01 0.01 0.01 0.01 0.01 0.00 0.00 0.00 0.00 0.00 0.00 0.00 0.00 0.00 0.00 0.00 0.00 0.00 0.00 0.00 0.00 0.00
0.04 0.04 0.04 0.04 0.04 0.04 0.04 0.03 0.04 0.04 0.04 0.03 0.02 0.02 0.02 0.02 0.02 0.02 0.02 0.01 0.01 0.01 0.01 0.01 0.01 0.01 0.01 0.01 0.01 0.01 0.01 0.01 0.01 0.01 0.00 0.00 0.00 0.00 0.01 0.01 0.01 0.01 0.01
0.06 0.08 0.08 0.08 0.06 0.06 0.05 0.05 0.04 0.04 0.04 0.04 0.02 0.02 0.02 0.01 0.02 0.02 0.02 0.02 0.01 0.01 0.01 0.01 0.01 0.01 0.01 0.01 0.01 0.00 0.00 0.00 0.01 0.01 0.01 0.01 0.01 0.01 0.01 0.02 0.02 0.02 0.01
0.07 0.06 0.07 0.07 0.07 0.06 0.07 0.09 0.09 0.06 0.05 0.05 0.05 0.04 0.03 0.02 0.03 0.03 0.03 0.02 0.02 0.02 0.02 0.02 0.02 0.02 0.02 0.01 0.01 0.01 0.01 0.01 0.01 0.01 0.01 0.01 0.01 0.01 0.01 0.01 0.01 0.01 0.01
0.07 0.07 0.09 0.10 0.09 0.09 0.10 0.12 0.12 0.09 0.06 0.07 0.06 0.06 0.06 0.05 0.06 0.07 0.06 0.05 0.04 0.04 0.04 0.03 0.03 0.03 0.02 0.02 0.02 0.01 0.02 0.02 0.02 0.02 0.01 0.01 0.01 0.00 0.01 0.01 0.01 0.02 0.01
0.13 0.13 0.14 0.13 0.13 0.13 0.15 0.16 0.14 0.11 0.10 0.11 0.11 0.11 0.10 0.09 0.10 0.10 0.09 0.07 0.05 0.05 0.04 0.04 0.04 0.05 0.05 0.05 0.05 0.04 0.04 0.03 0.03 0.02 0.02 0.01 0.01 0.00 0.00 0.00 0.01 0.01 0.01
0.16 0.17 0.17 0.16 0.16 0.17 0.17 0.17 0.15 0.13 0.11 0.11 0.12 0.12 0.11 0.09 0.08 0.08 0.08 0.06 0.05 0.05 0.04 0.04 0.04 0.05 0.05 0.05 0.05 0.04 0.03 0.03 0.02 0.02 0.01 0.01 0.01 0.01 0.01 0.01 0.01 0.02 0.02
0.15 0.16 0.17 0.16 0.16 0.16 0.15 0.15 0.15 0.15 0.14 0.11 0.10 0.08 0.08 0.08 0.07 0.06 0.06 0.05 0.04 0.04 0.03 0.04 0.04 0.04 0.03 0.02 0.02 0.02 0.02 0.01 0.01 0.01 0.01 0.01 0.01 0.01 0.01 0.01 0.01 0.01 0.02
0.11 0.15 0.18 0.20 0.19 0.18 0.18 0.17 0.16 0.15 0.16 0.17 0.15 0.13 0.11 0.10 0.08 0.06 0.06 0.06 0.07 0.06 0.05 0.05 0.05 0.05 0.05 0.04 0.03 0.03 0.03 0.03 0.03 0.02 0.02 0.02 0.01 0.01 0.01 0.01 0.01 0.01 0.01
0.12 0.15 0.18 0.20 0.19 0.19 0.19 0.18 0.15 0.13 0.14 0.14 0.12 0.10 0.10 0.09 0.09 0.10 0.08 0.06 0.06 0.06 0.06 0.06 0.06 0.06 0.06 0.06 0.05 0.04 0.04 0.05 0.04 0.04 0.03 0.02 0.02 0.02 0.01 0.01 0.01 0.01 0.01
0.15 0.17 0.18 0.19 0.18 0.17 0.16 0.16 0.15 0.12 0.12 0.11 0.10 0.10 0.10 0.11 0.12 0.12 0.11 0.11 0.10 0.10 0.09 0.07 0.08 0.08 0.07 0.06 0.05 0.03 0.03 0.03 0.03 0.02 0.02 0.01 0.01 0.01 0.01 0.01 0.01 0.01 0.01
0.07 0.09 0.09 0.10 0.11 0.11 0.10 0.11 0.12 0.11 0.10 0.10 0.11 0.11 0.12 0.13 0.13 0.12 0.12 0.12 0.11 0.10 0.08 0.07 0.07 0.06 0.05 0.04 0.03 0.02 0.02 0.02 0.02 0.02 0.02 0.01 0.01 0.01 0.01 0.01 0.02 0.02 0.02
0.05 0.05 0.05 0.07 0.08 0.09 0.11 0.12 0.11 0.09 0.08 0.07 0.07 0.08 0.08 0.08 0.08 0.09 0.09 0.09 0.08 0.08 0.06 0.06 0.05 0.04 0.04 0.03 0.03 0.02 0.02 0.02 0.02 0.02 0.02 0.02 0.01 0.01 0.02 0.01 0.02 0.02 0.02
0.04 0.05 0.05 0.06 0.08 0.08 0.07 0.07 0.06 0.06 0.05 0.04 0.04 0.03 0.03 0.03 0.03 0.03 0.03 0.03 0.03 0.03 0.03 0.03 0.03 0.03 0.02 0.02 0.02 0.02 0.02 0.02 0.02 0.02 0.02 0.02 0.03 0.03 0.03 0.02 0.02 0.03 0.03
0.02 0.02 0.01 0.02 0.02 0.02 0.02 0.02 0.03 0.03 0.02 0.02 0.02 0.02 0.03 0.03 0.02 0.02 0.02 0.01 0.01 0.01 0.01 0.01 0.01 0.01 0.01 0.01 0.01 0.01 0.01 0.01 0.01 0.01 0.02 0.02 0.02 0.02 0.02 0.02 0.02 0.03 0.04
0.01 0.01 0.01 0.01 0.01 0.01 0.01 0.01 0.01 0.01 0.01 0.00 0.01 0.01 0.01 0.01 0.02 0.02 0.03 0.03 0.03 0.03 0.02 0.02 0.02 0.01 0.01 0.01 0.01 0.01 0.01 0.01 0.02 0.02 0.02 0.02 0.02 0.02 0.02 0.03 0.03 0.04 0.04
0.01 0.01 0.01 0.01 0.01 0.00 0.00 0.00 0.00 0.00 0.00 0.00 0.00 0.01 0.01 0.01 0.01 0.01 0.01 0.02 0.01 0.01 0.01 0.01 0.01 0.01 0.01 0.01 0.01 0.01 0.01 0.01 0.02 0.02 0.02 0.02 0.03 0.03 0.03 0.03 0.03 0.03 0.03
0.01 0.01 0.00 0.00 0.00 0.00 0.00 0.00 0.00 0.00 0.00 0.00 0.00 0.00 0.00 0.00 0.00 0.00 0.00 0.00 0.00 0.00 0.00 0.00 0.00 0.00 0.00 0.00 0.00 0.01 0.01 0.01 0.01 0.02 0.02 0.02 0.03 0.02 0.02 0.03 0.03 0.03 0.04
0.00 0.00 0.00 0.00 0.00 0.00 0.00 0.00 0.00 0.00 0.00 0.00 0.00 0.00 0.00 0.00 0.00 0.00 0.00 0.00 0.00 0.00 0.00 0.00 0.00 0.00 0.00 0.00 0.00 0.01 0.01 0.01 0.01 0.01 0.02 0.02 0.02 0.02 0.03 0.03 0.03 0.03 0.04
0.00 0.00 0.00 0.00 0.00 0.00 0.01 0.01 0.01 0.01 0.01 0.01 0.01 0.01 0.01 0.01 0.01 0.00 0.00 0.00 0.00 0.00 0.00 0.00 0.00 0.00 0.00 0.01 0.01 0.01 0.02 0.03 0.03 0.02 0.02 0.02 0.02 0.03 0.04 0.04 0.04 0.04 0.04
0.00 0.00 0.00 0.00 0.00 0.00 0.00 0.00 0.00 0.00 0.01 0.01 0.01 0.00 0.00 0.00 0.00 0.00 0.00 0.00 0.00 0.00 0.00 0.00 0.00 0.00 0.00 0.01 0.01 0.02 0.02 0.03 0.03 0.03 0.03 0.02 0.02 0.03 0.04 0.05 0.04 0.04 0.04
MSLP
1012.03 1012.43 1012.86 1013.28 1013.67 1014.00 1014.30 1014.57 1014.85 1015.17 1015.54 1015.97 1016.43 1016.92 1017.40 1017.86 1018.26 1018.62 1018.92 1019.19 1019.43 1019.65 1019.87 1020.09 1020.29 1020.49 1020.66 1020.81 1020.93 1021.04 1021.13 1021.20 1021.26 1021.29 1021.29 1021.25 1021.16 1021.01 1020.81 1020.58 1020.32 1020.08 1019.87
1011.73 1012.12 1012.53 1012.95 1013.34 1013.70 1014.02 1014.33 1014.64 1014.98 1015.36 1015.79 1016.25 1016.73 1017.21 1017.67 1018.10 1018.48 1018.81 1019.11 1019.37 1019.60 1019.82 1020.02 1020.20 1020.36 1020.50 1020.63 1020.74 1020.85 1020.95 1021.05 1021.14 1021.21 1021.25 1021.25 1021.17 1021.04 1020.83 1020.57 1020.29 1020.00 1019.73
1011.41 1011.81 1012.23 1012.66 1013.06 1013.44 1013.78 1014.11 1014.44 1014.79 1015.17 1015.59 1016.05 1016.52 1017.00 1017.46 1017.89 1018.28 1018.63 1018.94 1019.22 1019.46 1019.67 1019.86 1020.03 1020.17 1020.29 1020.40 1020.50 1020.61 1020.72 1020.84 1020.96 1021.06 1021.14 1021.17 1021.13 1021.01 1020.83 1020.57 1020.28 1019.96 1019.65
1011.05 1011.49 1011.95 1012.39 1012.80 1013.19 1013.54 1013.88 1014.21 1014.57 1014.95 1015.37 1015.81 1016.27 1016.74 1017.19 1017.61 1018.00 1018.35 1018.66 1018.94 1019.18 1019.39 1019.57 1019.72 1019.85 1019.96 1020.06 1020.16 1020.26 1020.38 1020.50 1020.64 1020.77 1020.87 1020.93 1020.92 1020.85 1020.69 1020.47 1020.19 1019.88 1019.57
1010.64 1011.14 1011.63 1012.09 1012.51 1012.90 1013.25 1013.59 1013.93 1014.29 1014.68 1015.09 1015.53 1015.98 1016.43 1016.86 1017.26 1017.63 1017.96 1018.25 1018.51 1018.74 1018.94 1019.11 1019.26 1019.38 1019.49 1019.58 1019.67 1019.77 1019.87 1020.00 1020.13 1020.26 1020.38 1020.46 1020.49 1020.45 1020.35 1020.17 1019.94 1019.67 1019.37
1010.17 1010.72 1011.24 1011.72 1012.14 1012.52 1012.88 1013.22 1013.57 1013.94 1014.33 1014.75 1015.19 1015.63 1016.06 1016.46 1016.83 1017.16 1017.45 1017.71 1017.93 1018.14 1018.32 1018.48 1018.62 1018.74 1018.84 1018.94 1019.02 1019.11 1019.20 1019.31 1019.42 1019.54 1019.65 1019.74 1019.79 1019.80 1019.75 1019.64 1019.47 1019.25 1019.00
1009.63 1010.22 1010.76 1011.24 1011.66 1012.04 1012.39 1012.74 1013.10 1013.49 1013.90 1014.34 1014.79 1015.22 1015.63 1016.00 1016.32 1016.60 1016.83 1017.03 1017.21 1017.38 1017.53 1017.68 1017.82 1017.95 1018.06 1018.16 1018.25 1018.32 1018.40 1018.48 1018.56 1018.65 1018.74 1018.83 1018.89 1018.92 1018.92 1018.86 1018.77 1018.62 1018.43
1009.05 1009.66 1010.19 1010.66 1011.07 1011.44 1011.79 1012.15 1012.53 1012.95 1013.39 1013.85 1014.31 1014.74 1015.13 1015.46 1015.73 1015.94 1016.11 1016.25 1016.37 1016.50 1016.63 1016.78 1016.92 1017.07 1017.20 1017.31 1017.41 1017.49 1017.55 1017.60 1017.65 1017.71 1017.76 1017.82 1017.88 1017.92 1017.95 1017.94 1017.90 1017.82 1017.70
1008.50 1009.09 1009.60 1010.04 1010.42 1010.77 1011.12 1011.49 1011.90 1012.35 1012.82 1013.30 1013.77 1014.19 1014.55 1014.84 1015.05 1015.20 1015.30 1015.38 1015.46 1015.55 1015.68 1015.82 1015.99 1016.17 1016.34 1016.49 1016.61 1016.70 1016.76 1016.79 1016.81 1016.83 1016.85 1016.87 1016.91 1016.94 1016.97 1016.99 1016.99 1016.96 1016.88
1008.07 1008.61 1009.07 1009.45 1009.80 1010.12 1010.46 1010.84 1011.26 1011.72 1012.22 1012.71 1013.17 1013.58 1013.91 1014.15 1014.31 1014.40 1014.44 1014.47 1014.52 1014.60 1014.72 1014.89 1015.10 1015.32 1015.55 1015.75 1015.91 1016.03 1016.11 1016.14 1016.14 1016.13 1016.10 1016.09 1016.09 1016.10 1016.11 1016.13 1016.14 1016.12 1016.07
1007.85 1008.30 1008.68 1009.00 1009.28 1009.57 1009.88 1010.25 1010.67 1011.13 1011.62 1012.11 1012.55 1012.93 1013.22 1013.41 1013.52 1013.56 1013.56 1013.56 1013.59 1013.67 1013.82 1014.03 1014.29 1014.57 1014.87 1015.13 1015.36 1015.52 1015.62 1015.67 1015.66 1015.63 1015.58 1015.52 1015.48 1015.45 1015.43 1015.42 1015.41 1015.38 1015.33
1007.90 1008.24 1008.51 1008.75 1008.96 1009.19 1009.47 1009.80 1010.19 1010.63 1011.09 1011.54 1011.94 1012.27 1012.51 1012.65 1012.71 1012.71 1012.69 1012.68 1012.71 1012.82 1013.00 1013.26 1013.58 1013.93 1014.29 1014.62 1014.91 1015.12 1015.26 1015.33 1015.33 1015.29 1015.22 1015.14 1015.06 1014.99 1014.92 1014.87 1014.82 1014.76 1014.68
1008.24 1008.46 1008.62 1008.75 1008.89 1009.05 1009.27 1009.55 1009.89 1010.27 1010.67 1011.06 1011.39 1011.66 1011.83 1011.93 1011.94 1011.92 1011.89 1011.88 1011.93 1012.06 1012.29 1012.59 1012.96 1013.37 1013.79 1014.17 1014.50 1014.76 1014.94 1015.03 1015.05 1015.01 1014.93 1014.83 1014.73 1014.62 1014.51 1014.42 1014.32 1014.22 1014.10
1008.86 1008.94 1008.99 1009.03 1009.08 1009.18 1009.33 1009.54 1009.81 1010.11 1010.43 1010.72 1010.97 1011.16 1011.26 1011.30 1011.28 1011.24 1011.20 1011.20 1011.28 1011.44 1011.69 1012.02 1012.42 1012.86 1013.29 1013.70 1014.05 1014.33 1014.53 1014.64 1014.68 1014.65 1014.58 1014.48 1014.36 1014.23 1014.10 1013.97 1013.83 1013.69 1013.53
1009.67 1009.64 1009.59 1009.55 1009.54 1009.57 1009.65 1009.78 1009.97 1010.18 1010.39 1010.59 1010.74 1010.84 1010.87 1010.86 1010.80 1010.74 1010.70 1010.71 1010.79 1010.96 1011.22 1011.55 1011.94 1012.36 1012.77 1013.16 1013.49 1013.76 1013.95 1014.06 1014.11 1014.10 1014.04 1013.95 1013.84 1013.72 1013.58 1013.44 1013.29 1013.12 1012.94
1010.59 1010.47 1010.36 1010.26 1010.20 1010.18 1010.20 1010.27 1010.37 1010.49 1010.60 1010.70 1010.75 1010.76 1010.72 1010.65 1010.57 1010.49 1010.44 1010.44 1010.52 1010.67 1010.90 1011.18 1011.51 1011.86 1012.21 1012.52 1012.79 1013.01 1013.16 1013.26 1013.31 1013.31 1013.27 1013.21 1013.13 1013.04 1012.92 1012.79 1012.65 1012.48 1012.29
1011.51 1011.35 1011.21 1011.08 1011.00 1010.95 1010.93 1010.95 1010.98 1011.02 1011.04 1011.04 1011.00 1010.93 1010.83 1010.72 1010.60 1010.50 1010.43 1010.42 1010.46 1010.57 1010.73 1010.93 1011.16 1011.40 1011.63 1011.83 1012.00 1012.14 1012.23 1012.30 1012.33 1012.34 1012.33 1012.31 1012.27 1012.22 1012.15 1012.05 1011.93 1011.78 1011.60
1012.39 1012.21 1012.06 1011.95 1011.86 1011.81 1011.78 1011.76 1011.74 1011.72 1011.67 1011.59 1011.48 1011.34 1011.19 1011.03 1010.88 1010.76 1010.66 1010.61 1010.61 1010.64 1010.71 1010.80 1010.90 1011.00 1011.09 1011.15 1011.21 1011.24 1011.26 1011.28 1011.30 1011.32 1011.34 1011.36 1011.37 1011.37 1011.34 1011.29 1011.21 1011.08 1010.92
1013.17 1013.01 1012.89 1012.80 1012.74 1012.70 1012.67 1012.63 1012.58 1012.51 1012.41 1012.27 1012.11 1011.93 1011.73 1011.54 1011.36 1011.21 1011.08 1010.99 1010.92 1010.87 1010.83 1010.80 1010.75 1010.70 1010.64 1010.57 1010.50 1010.43 1010.38 1010.36 1010.36 1010.38 1010.43 1010.49 1010.55 1010.59 1010.62 1010.60 1010.55 1010.44 1010.29
1013.85 1013.73 1013.65 1013.60 1013.57 1013.55 1013.53 1013.50 1013.43 1013.33 1013.19 1013.01 1012.81 1012.59 1012.36 1012.15 1011.94 1011.76 1011.60 1011.45 1011.32 1011.18 1011.04 1010.88 1010.71 1010.52 1010.33 1010.13 1009.96 1009.81 1009.70 1009.64 1009.62 1009.66 1009.73 1009.82 1009.91 1009.99 1010.04 1010.05 1010.00 1009.90 1009.74
1014.48 1014.39 1014.35 1014.34 1014.34 1014.34 1014.33 1014.29 1014.20 1014.08 1013.91 1013.70 1013.47 1013.23 1012.98 1012.74 1012.52 1012.31 1012.11 1011.91 1011.71 1011.50 1011.26 1011.00 1010.72 1010.43 1010.13 1009.85 1009.60 1009.39 1009.25 1009.16 1009.15 1009.19 1009.27 1009.38 1009.48 1009.57 1009.62 1009.62 1009.56 1009.44 1009.24
1015.08 1015.03 1015.01 1015.02 1015.03 1015.04 1015.02 1014.96 1014.86 1014.71 1014.51 1014.28 1014.03 1013.76 1013.50 1013.24 1012.99 1012.75 1012.51 1012.27 1012.01 1011.73 1011.43 1011.09 1010.73 1010.36 1010.00 1009.67 1009.38 1009.15 1008.99 1008.90 1008.88 1008.93 1009.01 1009.12 1009.22 1009.29 1009.31 1009.27 1009.16 1008.97 1008.72
1015.69 1015.66 1015.65 1015.66 1015.66 1015.65 1015.60 1015.51 1015.38 1015.20 1014.97 1014.71 1014.43 1014.14 1013.85 1013.57 1013.29 1013.02 1012.75 1012.47 1012.16 1011.83 1011.46 1011.07 1010.67 1010.26 1009.87 1009.51 1009.21 1008.97 1008.82 1008.73 1008.72 1008.76 1008.83 1008.91 1008.97 1009.00 1008.96 1008.85 1008.67 1008.41 1008.07
1016.34 1016.30 1016.28 1016.26 1016.24 1016.18 1016.10 1015.96 1015.78 1015.56 1015.30 1015.01 1014.69 1014.38 1014.06 1013.75 1013.44 1013.13 1012.82 1012.49 1012.14 1011.75 1011.35 1010.92 1010.48 1010.05 1009.65 1009.28 1008.98 1008.75 1008.60 1008.52 1008.50 1008.52 1008.56 1008.60 1008.60 1008.56 1008.44 1008.25 1007.98 1007.64 1007.23
1017.03 1016.98 1016.92 1016.86 1016.79 1016.68 1016.53 1016.35 1016.12 1015.85 1015.55 1015.22 1014.88 1014.53 1014.18 1013.84 1013.49 1013.14 1012.77 1012.39 1011.98 1011.55 1011.10 1010.63 1010.17 1009.72 1009.30 1008.93 1008.63 1008.40 1008.24 1008.14 1008.09 1008.08 1008.07 1008.04 1007.98 1007.85 1007.66 1007.39 1007.04 1006.63 1006.15
1017.74 1017.66 1017.57 1017.46 1017.33 1017.16 1016.96 1016.72 1016.44 1016.13 1015.79 1015.43 1015.06 1014.68 1014.29 1013.91 1013.51 1013.11 1012.68 1012.24 1011.77 1011.28 1010.77 1010.26 1009.76 1009.27 1008.83 1008.45 1008.13 1007.87 1007.68 1007.55 1007.46 1007.39 1007.31 1007.22 1007.07 1006.87 1006.60 1006.26 1005.86 1005.40 1004.90
Thickness
5721 5720 5719 5718 5717 5716 5715 5714 5714 5713 5711 5710 5709 5708 5707 5706 5705 5704 5703 5701 5700 5698 5697 5696 5695 5693 5692 5690 5688 5686 5684 5683 5680 5680 5679 5679 5679 5679 5678 5677 5676 5675 5675
5724 5721 5720 5719 5717 5716 5715 5715 5714 5713 5712 5711 5709 5708 5706 5705 5704 5702 5701 5700 5698 5697 5695 5693 5692 5691 5689 5687 5684 5683 5681 5679 5677 5675 5675 5675 5674 5674 5673 5672 5672 5671 5671
5725 5722 5720 5719 5718 5717 5716 5715 5714 5713 5711 5710 5708 5707 5706 5705 5703 5701 5699 5698 5696 5695 5693 5691 5690 5687 5685 5683 5681 5679 5677 5675 5673 5671 5670 5670 5669 5668 5668 5667 5667 5666 5667
5726 5723 5721 5720 5719 5718 5717 5716 5714 5713 5711 5709 5708 5707 5706 5704 5701 5699 5697 5695 5694 5692 5691 5689 5687 5685 5683 5681 5678 5676 5674 5671 5668 5666 5665 5664 5663 5663 5661 5661 5661 5661 5661
5728 5725 5723 5722 5720 5718 5717 5715 5714 5712 5711 5710 5707 5705 5703 5701 5700 5697 5695 5693 5690 5688 5687 5686 5684 5683 5681 5678 5676 5673 5670 5666 5663 5661 5660 5658 5658 5656 5656 5656 5655 5655 5655
5730 5727 5725 5723 5720 5718 5717 5715 5713 5711 5709 5707 5705 5703 5701 5700 5699 5696 5693 5690 5688 5685 5683 5682 5680 5678 5677 5675 5672 5670 5666 5662 5659 5657 5655 5654 5654 5653 5651 5649 5648 5647 5648
5730 5728 5726 5723 5721 5719 5717 5714 5712 5709 5707 5705 5703 5701 5699 5697 5696 5693 5690 5687 5685 5682 5680 5677 5676 5675 5672 5670 5668 5665 5662 5660 5658 5655 5653 5652 5651 5650 5646 5644 5642 5641 5642
5730 5727 5725 5723 5721 5718 5716 5713 5711 5709 5706 5704 5701 5698 5696 5694 5692 5689 5686 5683 5681 5679 5677 5674 5671 5670 5668 5665 5662 5660 5658 5656 5653 5650 5649 5649 5647 5645 5641 5639 5637 5636 5636
5728 5727 5725 5723 5719 5716 5713 5711 5710 5706 5703 5700 5698 5695 5692 5690 5688 5684 5681 5678 5676 5674 5672 5669 5666 5664 5662 5658 5654 5653 5652 5650 5648 5645 5644 5643 5641 5638 5634 5629 5628 5626 5629
5726 5724 5723 5721 5717 5714 5711 5709 5706 5703 5700 5697 5693 5690 5688 5686 5683 5679 5675 5672 5669 5668 5666 5663 5660 5658 5655 5651 5648 5646 5644 5644 5641 5639 5637 5635 5633 5631 5627 5623 5622 5620 5621
5721 5719 5716 5715 5712 5710 5707 5704 5701 5698 5695 5691 5689 5686 5683 5681 5678 5674 5670 5667 5665 5662 5659 5657 5655 5652 5648 5644 5641 5639 5638 5635 5632 5630 5629 5627 5625 5623 5620 5618 5615 5612 5612
5714 5711 5709 5707 5706 5703 5700 5697 5694 5690 5687 5684 5682 5679 5677 5674 5671 5668 5664 5661 5659 5656 5654 5651 5648 5644 5640 5636 5633 5631 5628 5624 5622 5620 5618 5618 5616 5615 5613 5611 5608 5606 5605
5705 5701 5699 5697 5695 5693 5691 5688 5684 5682 5678 5675 5673 5670 5668 5666 5663 5660 5657 5654 5651 5648 5646 5643 5639 5635 5631 5627 5624 5621 5617 5614 5611 5609 5608 5608 5607 5605 5602 5600 5599 5596 5595
5693 5690 5688 5686 5684 5683 5680 5678 5674 5671 5669 5666 5663 5661 5659 5657 5654 5651 5648 5645 5642 5638 5635 5632 5628 5624 5620 5616 5613 5610 5606 5603 5600 5599 5598 5597 5594 5592 5590 5588 5586 5585 5583
5682 5679 5677 5675 5674 5671 5668 5665 5663 5661 5659 5656 5653 5651 5649 5646 5643 5640 5637 5634 5631 5628 5623 5620 5616 5612 5609 5606 5602 5599 5596 5592 5589 5587 5585 5584 5582 5580 5579 5576 5573 5571 5570
5670 5667 5665 5663 5661 5658 5655 5652 5649 5648 5646 5644 5641 5639 5636 5633 5630 5627 5625 5621 5617 5614 5609 5607 5604 5600 5597 5594 5590 5588 5584 5581 5578 5576 5573 5571 5570 5568 5567 5564 5560 5559 5558
5656 5653 5651 5649 5647 5644 5642 5640 5637 5634 5632 5629 5626 5624 5622 5619 5616 5614 5611 5606 5602 5599 5595 5592 5589 5586 5583 5580 5576 5574 5571 5569 5566 5563 5561 5559 5557 5556 5554 5552 5549 5547 5546
5642 5640 5638 5636 5634 5631 5629 5627 5625 5622 5619 5616 5613 5610 5607 5604 5601 5598 5595 5591 5587 5583 5580 5577 5574 5571 5568 5566 5563 5560 5558 5556 5553 5551 5548 5546 5544 5542 5540 5539 5537 5535 5534
5629 5627 5625 5623 5620 5618 5616 5614 5611 5608 5604 5601 5598 5595 5592 5589 5585 5581 5578 5575 5572 5568 5565 5562 5559 5556 5554 5552 5550 5547 5545 5542 5540 5538 5536 5533 5531 5529 5527 5526 5525 5523 5520
5615 5615 5612 5609 5607 5604 5601 5598 5595 5592 5588 5585 5582 5579 5576 5573 5570 5565 5561 5558 5556 5553 5550 5547 5545 5542 5540 5538 5536 5534 5532 5530 5528 5525 5524 5522 5519 5517 5515 5514 5513 5512 5511
5601 5599 5598 5594 5591 5588 5585 5581 5578 5574 5571 5567 5564 5561 5558 5556 5553 5549 5546 5543 5540 5538 5535 5533 5530 5528 5526 5524 5523 5521 5520 5518 5516 5513 5512 5510 5508 5506 5504 5502 5501 5500 5499
5588 5585 5582 5579 5575 5572 5569 5566 5562 5559 5555 5552 5549 5546 5541 5539 5537 5534 5531 5528 5525 5522 5520 5518 5516 5514 5512 5511 5509 5508 5507 5505 5503 5501 5500 5499 5496 5495 5493 5492 5491 5490 5489
5574 5571 5567 5563 5560 5556 5553 5550 5546 5543 5540 5536 5533 5530 5526 5523 5520 5518 5516 5513 5511 5508 5506 5504 5502 5501 5500 5498 5496 5494 5493 5492 5490 5488 5487 5487 5486 5484 5483 5482 5482 5481 5482
5558 5555 5551 5547 5544 5540 5536 5533 5529 5526 5523 5520 5516 5513 5510 5507 5505 5503 5500 5498 5496 5494 5492 5491 5489 5488 5487 5486 5484 5483 5481 5479 5478 5477 5477 5476 5476 5475 5474 5474 5474 5475 5475
5542 5539 5535 5531 5527 5523 5519 5515 5512 5509 5506 5503 5500 5498 5495 5493 5491 5489 5487 5485 5483 5482 5480 5479 5478 5478 5477 5476 5475 5473 5472 5470 5468 5467 5468 5468 5468 5468 5467 5467 5468 5469 5469
5526 5523 5519 5514 5510 5506 5502 5499 5496 5493 5490 5488 5486 5484 5482 5480 5478 5476 5475 5473 5472 5472 5471 5470 5469 5468 5468 5468 5467 5466 5465 5464 5463 5462 5461 5462 5462 5462 5462 5463 5464 5465 5466